CFG3WZ EDDH-EDDF

Flight info

Callsign CFG3WZ
Flight time N/A
Altitude 30000
Route AMLUH2G/33 AMLUH M852 DENIX DCT RIMET/N0445F310 T157 KOKEB/N0399F230 T157 KERAX KERAX5A
Aircraft A320/M-SDE3FGHIRWY/LB1

Departure

Time 2026-04-23 19:25
Airport Hamburg Helmut Schmidt Airport (EDDH)

Arrival

Time N/A
Airport Frankfurt Main Airport (EDDF)
Time Latitude Longitude Altitude Speed Heading
2026-04-23 18:58 53.63074 10.00378 49 ft 0 kts 94°
2026-04-23 19:14 53.63075 10.00350 48 ft 2 kts 94°
2026-04-23 19:14 53.63076 10.00321 48 ft 2 kts 94°
2026-04-23 19:14 53.63077 10.00292 48 ft 3 kts 97°
2026-04-23 19:15 53.63082 10.00264 45 ft 2 kts 115°
2026-04-23 19:15 53.63089 10.00241 45 ft 2 kts 118°
2026-04-23 19:15 53.63096 10.00219 44 ft 3 kts 128°
2026-04-23 19:15 53.63109 10.00199 45 ft 3 kts 154°
2026-04-23 19:16 53.63125 10.00190 47 ft 2 kts 177°
2026-04-23 19:16 53.63128 10.00190 46 ft 0 kts 177°
2026-04-23 19:18 53.63103 10.00192 45 ft 6 kts 177°
2026-04-23 19:18 53.63065 10.00178 48 ft 5 kts 207°
2026-04-23 19:18 53.63037 10.00148 48 ft 7 kts 212°
2026-04-23 19:18 53.62996 10.00105 48 ft 6 kts 212°
2026-04-23 19:19 53.62915 9.99974 48 ft 10 kts 243°
2026-04-23 19:19 53.62900 9.99926 47 ft 2 kts 243°
2026-04-23 19:20 53.62896 9.99914 48 ft 0 kts 243°
2026-04-23 19:22 53.62876 9.99848 46 ft 12 kts 243°
2026-04-23 19:23 53.62877 9.99731 44 ft 10 kts 343°
2026-04-23 19:23 53.62909 9.99708 45 ft 0 kts 334°
2026-04-23 19:24 53.62942 9.99681 45 ft 22 kts 334°
2026-04-23 19:24 53.63313 9.99361 47 ft 93 kts 333°
2026-04-23 19:24 53.65019 9.97890 578 ft 151 kts 329°
2026-04-23 19:25 53.66885 9.96335 2006 ft 158 kts 334°
2026-04-23 19:25 53.69146 9.94737 2914 ft 189 kts 352°
2026-04-23 19:26 53.71841 9.94748 4433 ft 198 kts
2026-04-23 19:26 53.73088 9.95895 4902 ft 217 kts 44°
2026-04-23 19:27 53.74238 10.00764 5006 ft 232 kts 78°
2026-04-23 19:27 53.72301 10.09211 5641 ft 291 kts 117°
2026-04-23 19:28 53.70272 10.15237 7397 ft 299 kts 116°
2026-04-23 19:28 53.67426 10.20461 9115 ft 312 kts 147°
2026-04-23 19:29 53.65436 10.21973 9991 ft 316 kts 164°
2026-04-23 19:29 53.61000 10.23972 10852 ft 352 kts 165°
2026-04-23 19:30 53.56075 10.26215 11905 ft 374 kts 165°
2026-04-23 19:30 53.53544 10.27373 12646 ft 378 kts 165°
2026-04-23 19:30 53.48420 10.29721 14139 ft 385 kts 164°
2026-04-23 19:31 53.47378 10.30198 14406 ft 386 kts 165°